User: anonymous   Login
Location: Plum
(40.5000°N, 79.7500°W)
Time: 03:31:14
(UTC-04:00)
Language:

Cosmos 1825 - Orbit

View from above orbital plane
View from above orbital plane
View from above satellite
View from above satellite

Ground track
Ground track

The orbit data is extracted from the following two-line orbital elements,

1 17566U 87024A   17262.86017474 +.00000852 +00000-0 +39399-4 0  9993
2 17566 082.5071 196.2908 0002275 230.5528 129.5505 15.18845826667921
Epoch (UTC): 19 September 2017 20:38:39
Eccentricity: 0.0002275
inclination: 82.5071°
perigee height: 508 km
apogee height: 511 km
right ascension of ascending node: 196.2908°
argument of perigee: 230.5528°
revolutions per day: 15.18845826
mean anomaly at epoch: 129.5505°
orbit number at epoch: 66792

The dashed part of the orbit path shows where the satellite is in the earth's shadow,  

DLR